Date,TemperatureHighF,TemperatureAvgF,TemperatureLowF,DewpointHighF,DewpointAvgF,DewpointLowF,HumidityHigh,HumidityAvg,HumidityLow,PressureMaxIn,PressureMinIn,WindSpeedMaxMPH,WindSpeedAvgMPH,GustSpeedMaxMPH,PrecipitationSumIn
2013-1-1,18,4,-9,15,0,-13,89,82,67,30.20,29.95,8,3,0,0.00
2013-1-2,18,14,11,15,11,8,90,88,81,29.98,29.87,8,4,0,0.00
2013-1-3,21,14,7,17,10,4,90,84,69,30.16,29.98,10,5,0,0.00
2013-1-4,36,22,11,23,17,8,89,79,60,30.05,29.94,14,5,0,0.00
2013-1-5,32,18,11,20,13,8,89,83,62,30.02,29.76,9,4,0,0.04
2013-1-6,30,18,10,17,12,8,90,79,56,30.13,29.90,10,4,0,0.00
2013-1-7,39,27,14,30,23,12,91,83,70,29.96,29.80,17,7,0,0.00
2013-1-8,36,27,18,31,22,6,91,81,51,29.91,29.68,14,5,0,0.00
2013-1-9,38,31,25,29,25,20,91,80,63,30.28,29.81,15,7,0,0.00
2013-1-10,40,33,25,31,22,-46,88,71,2,30.26,29.67,10,7,0,0.26
2013-1-11,40,36,34,18,-4,-55,44,27,1,29.66,29.28,11,6,0,0.06
2013-1-12,40,17,4,32,8,-55,92,74,1,29.97,29.29,24,10,0,0.00
2013-1-13,10,5,1,5,0,-3,85,80,72,30.15,29.95,8,3,0,0.00
2013-1-14,16,8,2,6,2,-1,87,79,60,30.31,30.15,14,5,0,0.00
2013-1-15,31,20,7,22,14,4,88,80,63,30.21,29.76,16,7,0,0.00
2013-1-16,38,26,12,35,18,-1,92,73,44,30.13,29.58,14,6,0,0.00
2013-1-17,24,13,6,12,3,-4,86,66,53,30.31,30.15,9,3,0,0.00
2013-1-18,43,29,15,36,25,12,91,85,71,30.21,29.63,13,7,0,0.00
2013-1-19,39,23,1,34,17,-6,91,78,64,30.09,29.59,19,6,0,0.00
2013-1-20,12,3,-3,0,-5,-11,81,68,51,30.30,30.10,12,5,0,0.00
2013-1-21,-1,-7,-13,-12,-16,-22,72,63,52,30.24,30.16,11,5,0,0.00
2013-1-22,4,-5,-14,-4,-13,-21,73,66,51,30.31,30.15,8,4,0,0.00
2013-1-23,20,6,-8,12,-2,-18,87,69,54,30.51,30.06,13,5,0,0.00
2013-1-24,10,0,-9,4,-8,-19,76,65,59,30.60,30.10,11,6,0,0.00
2013-1-25,22,14,4,14,6,-2,86,73,57,30.20,29.85,14,6,0,0.00
2013-1-26,23,12,-2,15,5,-6,83,73,62,30.27,30.05,10,4,0,0.00
2013-1-27,32,29,21,29,-10,-59,88,46,1,30.05,29.71,13,6,0,0.00
2013-1-28,37,32,30,35,-33,-59,92,23,1,29.82,29.54,8,3,0,0.02
2013-1-29,39,33,28,36,0,-58,93,54,1,29.63,29.42,13,4,0,0.15
2013-1-30,28,17,9,25,13,4,89,82,72,29.63,29.53,12,6,0,0.00
2013-1-31,9,2,-8,3,-5,-16,83,73,65,30.16,29.63,11,7,0,0.01
2013-2-1,4,-4,-14,0,-11,-20,86,71,50,30.22,29.96,11,4,0,0.00
2013-2-2,20,6,-2,5,0,-6,87,76,46,30.09,29.87,6,3,0,0.00
2013-2-3,20,11,3,9,5,-1,89,75,56,29.98,29.87,10,4,0,0.00
2013-2-7,27,26,24,25,21,2,91,83,38,30.17,29.94,12,6,0,0.00
2013-2-8,32,22,14,21,16,11,90,77,58,30.31,30.16,11,4,0,0.00
2013-2-9,31,27,22,29,25,20,92,89,78,30.16,29.87,15,9,0,0.00
2013-2-10,34,31,27,31,2,-58,91,61,1,29.87,29.16,14,6,0,0.23
2013-2-11,31,26,18,25,10,-59,93,73,1,29.94,29.20,12,6,0,0.00
2013-2-12,38,25,14,30,20,11,91,84,70,29.96,29.71,14,4,0,0.03
2013-2-13,44,28,18,33,11,-58,92,71,1,29.71,29.46,8,1,0,0.05
2013-2-14,42,28,13,36,11,-58,93,63,1,30.07,29.47,9,2,0,0.08
2013-2-15,25,13,5,9,4,0,81,67,47,30.20,30.08,8,2,0,0.00
2013-2-16,32,10,-2,13,3,-5,88,73,45,30.16,30.03,3,0,0,0.00
2013-2-17,31,19,3,23,14,-1,85,78,68,30.04,29.57,14,7,0,0.00
2013-2-18,36,24,10,34,20,5,92,86,79,29.67,29.43,11,6,0,0.01
2013-2-19,16,7,0,5,-2,-8,87,66,52,30.26,29.68,14,6,0,0.00
2013-2-20,29,8,-6,9,-1,-10,81,67,43,30.37,30.26,7,2,0,0.00
2013-2-21,24,14,0,13,7,-3,87,73,58,30.37,30.01,10,4,0,0.00
2013-2-22,34,24,19,31,22,13,94,90,77,30.00,29.75,10,3,0,0.01
2013-2-23,43,26,19,32,22,17,93,87,65,29.86,29.75,8,1,0,0.02
2013-2-24,49,26,12,30,20,10,94,78,45,30.02,29.87,0,0,0,0.07
2013-2-25,46,30,23,34,26,20,94,85,62,30.03,29.94,4,0,0,0.00
2013-2-26,42,31,18,32,26,17,94,84,69,29.97,29.77,12,4,0,0.00
2013-2-27,40,32,26,31,28,23,90,82,70,29.92,29.76,12,7,0,0.00
2013-2-28,33,28,23,26,23,17,90,80,73,30.14,29.92,12,5,0,0.00
2013-3-1,37,25,14,23,17,11,86,73,56,30.26,30.14,11,4,0,0.00
2013-3-2,42,22,7,19,11,4,91,66,33,30.27,30.09,5,1,0,0.00
2013-3-3,37,29,15,17,13,8,75,50,42,30.05,29.91,8,5,0,0.00
2013-3-4,27,25,22,23,18,12,95,77,53,29.96,29.87,12,6,0,0.00
2013-3-5,33,26,19,30,24,17,95,92,84,30.21,29.90,10,5,0,0.00
2013-3-6,41,24,14,24,18,13,94,79,50,30.33,30.21,7,2,0,0.11
2013-3-7,38,23,6,24,16,3,93,77,57,30.31,30.21,8,2,0,0.00
2013-3-8,44,30,19,34,26,17,94,84,67,30.26,30.02,9,5,0,0.00
2013-3-9,37,35,33,36,12,-56,96,70,1,30.02,29.62,10,4,0,0.55
2013-3-10,36,34,29,33,24,-57,96,83,1,29.85,29.68,14,8,0,0.02
2013-3-11,33,28,24,28,25,20,96,88,77,29.76,29.64,10,4,0,0.01
2013-3-12,34,26,20,22,18,12,92,73,55,30.08,29.74,14,4,0,0.00
2013-3-13,44,26,13,21,15,10,91,66,32,30.28,30.09,10,2,0,0.01
2013-3-14,48,30,20,34,26,17,96,84,58,30.18,29.93,8,2,0,0.05
2013-3-15,35,30,24,34,29,22,97,94,88,29.93,29.74,11,4,0,0.14
2013-3-16,37,24,13,22,16,6,95,74,50,30.14,29.80,10,4,0,0.00
2013-3-17,30,18,3,19,8,-3,77,65,53,30.19,29.81,11,5,0,0.00
2013-3-18,29,22,12,28,18,8,97,86,75,29.82,29.50,15,9,0,0.00
2013-3-19,29,15,6,12,5,-3,81,64,48,30.08,29.70,12,7,0,0.00
2013-3-20,27,15,4,9,2,-4,70,59,44,30.10,30.00,10,5,0,0.00
2013-3-21,38,20,2,17,8,-2,83,61,37,30.03,29.95,6,1,0,0.00
2013-3-22,52,27,6,22,15,2,88,63,28,30.01,29.95,6,0,0,0.00
2013-3-23,52,33,18,28,21,15,90,64,39,30.07,29.99,3,0,0,0.00
2013-3-24,34,30,26,26,23,21,82,77,70,29.99,29.88,13,5,0,0.00
2013-3-25,44,32,20,27,21,16,86,67,47,30.13,29.94,14,4,0,0.00
2013-3-26,51,35,28,32,25,22,79,67,44,30.22,30.13,4,1,0,0.00
2013-3-27,54,37,25,32,24,20,91,62,30,30.26,30.22,4,0,0,0.00
2013-3-28,53,36,21,32,24,18,89,64,39,30.28,30.20,6,0,0,0.00
2013-3-29,49,39,29,37,31,24,88,74,60,30.23,30.01,7,1,0,0.00
2013-3-30,60,45,36,49,40,35,98,85,56,30.01,29.75,11,3,0,0.31
2013-3-31,44,35,24,35,27,16,98,73,39,29.98,29.70,14,5,0,0.00
2013-4-1,40,28,16,19,16,11,81,62,38,30.16,29.99,9,4,0,0.00
2013-4-2,44,29,17,22,17,14,88,63,37,30.28,30.16,8,2,0,0.00
2013-4-3,43,33,18,34,24,14,91,72,53,30.34,30.00,16,5,0,0.00
2013-4-4,56,44,32,41,33,24,83,65,42,30.09,29.93,14,5,0,0.00
2013-4-5,45,35,25,34,27,18,98,75,51,30.17,29.84,10,5,0,0.03
2013-4-6,53,41,33,45,37,32,98,86,70,29.82,29.40,14,7,0,0.09
2013-4-7,49,40,35,41,37,34,98,88,74,29.86,29.65,7,2,0,0.10
2013-4-8,47,42,39,44,37,-17,98,87,8,29.95,29.60,10,4,0,0.39
2013-4-9,43,38,32,39,35,30,98,91,72,30.08,29.90,14,7,0,0.46
2013-4-10,40,34,29,32,29,23,98,81,69,30.12,29.82,16,8,0,0.16
2013-4-11,36,33,30,35,30,25,98,90,72,29.83,29.58,14,8,0,0.19
2013-4-12,44,33,27,37,30,24,98,88,69,29.74,29.57,8,3,0,0.23
2013-4-13,42,33,27,33,28,25,98,82,63,29.88,29.74,8,1,0,0.12
2013-4-14,37,32,28,36,30,25,98,93,82,29.87,29.40,17,6,0,0.11
2013-4-15,41,36,32,36,32,28,98,85,74,29.88,29.46,20,11,0,0.05
2013-4-16,52,40,33,36,32,29,93,73,51,30.25,29.89,9,3,0,0.00
2013-4-17,40,36,33,37,32,27,98,84,70,30.25,29.81,14,6,0,0.39
2013-4-18,34,33,31,33,25,12,98,74,43,29.82,29.36,14,7,0,0.28
2013-4-19,41,34,27,33,27,15,98,76,52,29.89,29.35,17,5,0,0.23
2013-4-20,56,37,20,22,17,7,77,48,15,30.23,29.89,4,1,0,0.35
2013-4-21,50,40,32,46,35,20,98,85,54,30.24,29.95,16,6,0,0.60
2013-4-22,45,37,32,40,32,21,98,83,63,30.13,30.01,10,4,0,0.17
2013-4-23,51,39,30,37,29,20,98,71,45,30.05,29.95,8,3,0,0.44
2013-4-24,50,38,25,38,33,24,98,83,57,29.99,29.82,18,5,0,0.00
2013-4-25,52,42,33,38,34,32,98,76,53,30.12,29.89,12,4,0,0.00
2013-4-26,77,63,45,54,47,40,82,58,35,30.05,29.92,16,5,0,0.01
2013-4-27,76,61,45,57,49,39,85,67,45,30.06,29.84,11,3,0,0.00
2013-4-28,79,63,50,59,54,48,98,75,47,29.83,29.56,18,7,0,0.11
2013-4-29,79,64,49,62,54,45,98,74,45,29.74,29.48,10,3,0,0.15
2013-4-30,74,66,58,65,53,37,94,67,35,29.87,29.35,18,6,0,0.00
2013-5-1,58,40,33,43,36,26,98,88,56,30.42,29.89,8,3,0,0.65
2013-5-2,46,38,32,36,31,24,98,79,65,30.46,30.34,10,3,0,0.64
2013-5-3,37,34,31,35,32,30,98,95,85,30.33,30.06,11,6,0,0.31
2013-5-4,57,42,32,50,39,28,98,91,77,30.09,30.03,11,6,0,0.18
2013-5-5,73,53,37,56,46,37,98,80,54,30.10,29.99,6,3,0,0.02
2013-5-6,83,64,45,58,52,44,98,67,35,30.05,29.93,5,1,0,0.00
2013-5-7,82,68,53,59,52,44,88,60,29,30.00,29.88,11,2,0,0.02
2013-5-8,82,67,55,61,56,51,98,70,39,29.93,29.85,5,0,0,0.21
2013-5-9,58,52,43,58,51,34,98,94,72,30.01,29.87,13,6,0,0.30
2013-5-10,74,54,37,41,35,30,82,52,22,30.03,29.82,10,3,0,0.00
2013-5-11,55,47,38,48,33,27,85,59,38,30.09,29.79,14,6,0,0.22
2013-5-12,62,48,31,32,27,21,79,48,25,30.14,30.00,10,2,0,0.02
2013-5-13,69,55,37,52,37,22,67,53,35,30.05,29.58,13,5,0,0.01
2013-5-14,102,76,54,62,52,17,87,50,7,29.64,29.36,17,5,0,0.00
2013-5-15,81,68,55,55,52,48,78,58,38,29.84,29.57,12,3,0,0.04
2013-5-16,86,72,56,57,50,40,78,49,30,29.85,29.76,14,4,0,0.00
2013-5-17,67,58,55,57,53,40,98,84,38,29.94,29.83,12,6,0,0.14
2013-5-18,81,64,54,72,61,43,98,89,62,29.95,29.73,12,4,0,0.81
2013-5-19,83,70,63,73,57,-39,98,75,1,29.74,29.47,17,5,0,1.11
2013-5-20,72,66,60,66,40,-40,90,63,1,29.50,29.42,18,7,0,0.40
2013-5-21,69,59,51,65,8,-46,89,39,1,29.61,29.44,9,3,0,0.12
2013-5-22,54,51,47,51,11,-49,90,52,1,29.90,29.60,12,6,0,0.04
2013-5-23,66,55,43,49,41,33,90,63,40,30.28,29.90,12,6,0,0.01
2013-5-24,70,57,39,54,44,33,89,64,47,30.34,30.12,10,4,0,0.11
2013-5-25,64,57,52,55,49,24,90,75,33,30.21,30.16,16,6,0,0.29
2013-5-26,60,56,50,53,48,44,89,76,56,30.18,29.99,12,5,0,0.00
2013-5-27,61,57,54,57,45,0,90,70,10,29.99,29.77,12,6,0,0.12
2013-5-28,61,56,52,56,0,-46,86,30,1,29.77,29.64,9,2,0,0.03
2013-5-29,76,65,56,73,24,-43,91,52,1,29.77,29.57,14,4,0,0.40
2013-5-30,78,70,64,71,47,-38,92,66,1,29.61,29.44,16,8,0,0.61
2013-5-31,81,68,62,68,61,43,94,79,45,29.49,29.41,22,8,0,0.48
2013-6-1,79,62,50,65,56,36,94,82,47,29.83,29.47,11,3,0,0.06
2013-6-2,71,58,46,50,47,43,94,69,41,29.99,29.84,13,4,0,0.56
2013-6-3,77,63,48,54,51,42,93,67,40,30.00,29.87,7,1,0,0.38
2013-6-4,64,59,55,58,54,48,93,81,68,30.03,29.93,11,5,0,0.38
2013-6-5,58,56,54,51,21,-45,86,48,1,30.00,29.87,8,3,0,0.04
2013-6-6,59,54,51,57,3,-46,95,37,1,29.92,29.88,7,3,0,0.01
2013-6-8,74,68,62,62,60,59,89,78,63,29.83,29.81,9,5,0,0.19
2013-6-9,69,61,56,66,51,-40,95,80,1,29.84,29.69,15,6,0,0.46
2013-6-10,82,68,59,72,25,-42,94,50,1,29.78,29.72,6,0,0,0.01
2013-6-11,80,69,59,73,41,-42,94,64,1,29.81,29.73,6,0,0,0.07
2013-6-12,75,68,64,72,33,-38,96,58,1,29.81,29.69,10,4,0,0.82
2013-6-13,81,71,57,65,60,54,92,70,55,30.02,29.82,9,4,0,0.00
2013-6-14,79,70,58,68,62,56,94,78,64,30.03,29.80,14,6,0,0.11
2013-6-15,78,69,63,73,64,37,96,83,36,29.86,29.75,11,2,0,0.51
2013-6-16,90,74,58,66,42,-41,96,49,1,29.85,29.76,10,2,0,0.12
2013-6-17,87,73,62,67,63,59,94,72,45,29.94,29.78,10,2,0,0.19
2013-6-18,80,67,54,66,60,53,96,78,57,30.02,29.94,8,4,0,0.10
2013-6-19,86,73,58,69,64,56,96,73,55,30.00,29.88,10,3,0,0.00
2013-6-20,90,79,68,76,70,65,91,74,55,29.95,29.82,12,5,0,0.00
2013-6-21,85,73,65,74,41,-38,96,56,1,30.01,29.64,18,4,0,2.01
2013-6-22,85,72,65,77,38,-38,98,57,1,29.95,29.76,9,3,0,0.50
2013-6-23,86,75,69,76,71,65,98,87,68,29.81,29.61,14,7,0,0.37
2013-6-24,85,74,65,76,64,-38,98,81,1,29.85,29.71,11,2,0,0.02
2013-6-25,88,76,65,78,70,46,98,82,50,29.77,29.64,11,3,0,0.00
2013-6-26,90,78,72,82,51,-34,98,63,1,29.73,29.59,9,1,0,0.45
2013-6-27,90,80,69,74,68,62,98,69,41,29.73,29.69,11,2,0,0.02
2013-6-28,83,71,65,71,66,63,98,84,62,29.72,29.66,11,4,0,0.25
2013-6-29,78,69,62,67,60,35,98,73,34,29.90,29.66,11,5,0,0.40
2013-6-30,85,72,57,64,59,54,95,67,43,30.04,29.92,13,4,0,0.06
2013-7-1,91,76,61,66,62,58,98,65,39,30.12,30.03,7,2,0,0.71
2013-7-2,87,73,56,65,60,53,90,65,46,30.09,29.98,9,3,0,0.06
2013-7-3,94,76,56,68,58,48,98,61,22,30.00,29.89,8,1,0,0.04
2013-7-4,90,77,64,70,65,60,90,68,43,29.91,29.80,12,4,0,0.17
2013-7-5,89,80,68,71,67,63,84,67,51,29.84,29.74,16,7,0,0.00
2013-7-6,94,80,73,74,70,66,79,70,52,29.82,29.74,11,6,0,0.05
2013-7-7,95,82,72,78,74,71,98,77,59,29.79,29.74,11,3,0,0.14
2013-7-8,93,77,66,77,65,24,98,71,20,29.92,29.79,7,3,0,0.01
2013-7-9,87,78,70,78,71,4,98,83,7,29.89,29.70,14,4,0,0.67
2013-7-10,84,74,62,70,63,60,96,72,49,29.97,29.82,10,3,0,0.00
2013-7-11,88,75,60,72,65,60,98,75,50,30.05,29.92,8,1,0,0.00
2013-7-12,88,77,66,71,67,63,93,73,53,29.96,29.86,14,6,0,0.07
2013-7-13,80,72,64,75,68,62,98,88,70,30.01,29.87,16,5,0,0.45
2013-7-14,88,77,70,74,71,68,95,82,60,30.13,29.99,12,3,0,0.01
2013-7-15,91,80,68,76,72,68,98,80,55,30.18,30.10,8,1,0,0.00
2013-7-16,97,84,74,81,77,73,98,80,55,30.15,30.10,11,3,0,0.00
2013-7-17,97,86,74,80,77,74,98,77,55,30.19,30.04,11,3,0,0.00
2013-7-18,95,86,75,80,77,74,98,77,58,30.04,29.69,19,8,0,0.05
2013-7-19,91,83,72,77,71,66,98,70,48,29.81,29.64,14,4,0,0.23
2013-7-20,86,75,65,72,66,61,98,75,54,29.88,29.77,8,2,0,0.04
2013-7-21,84,70,59,74,64,54,98,85,70,29.89,29.73,7,4,0,0.24
2013-7-22,92,75,64,80,69,60,98,83,53,29.76,29.58,12,5,0,0.07
2013-7-23,82,69,60,63,59,57,96,72,53,29.94,29.76,10,3,0,0.08
2013-7-24,82,67,56,65,60,54,95,79,55,30.01,29.91,6,1,0,0.00
2013-7-25,88,74,62,72,67,61,98,81,51,29.91,29.82,8,2,0,0.11
2013-7-26,76,66,53,69,61,51,98,84,64,29.99,29.80,13,5,0,0.07
2013-7-27,67,56,51,57,53,49,98,88,64,29.99,29.84,11,4,0,0.12
2013-7-28,78,62,51,61,55,50,97,80,54,29.99,29.86,8,2,0,0.00
2013-7-29,81,67,53,64,57,28,98,72,31,30.07,29.99,8,1,0,0.16
2013-7-30,75,68,64,70,65,44,98,90,47,30.04,29.97,7,0,0,0.00
2013-7-31,83,71,64,74,52,-37,98,57,1,29.99,29.89,14,2,0,0.00
2013-8-1,86,72,55,64,60,54,98,71,43,29.96,29.78,8,1,0,0.08
2013-8-2,82,71,59,66,61,55,98,71,47,29.96,29.76,8,2,0,0.11
2013-8-3,86,70,56,63,58,54,98,68,41,30.11,29.96,8,2,0,0.10
2013-8-4,79,66,54,64,59,53,98,79,56,30.17,29.95,6,1,0,0.08
2013-8-5,81,68,60,74,65,41,98,92,48,29.94,29.71,10,1,0,0.39
2013-8-6,87,70,58,74,64,38,98,81,46,29.76,29.61,14,2,0,0.60
2013-8-7,82,69,59,65,60,52,98,75,48,29.95,29.69,8,3,0,0.00
2013-8-8,81,67,56,67,61,55,98,83,56,29.98,29.90,8,1,0,0.19
2013-8-9,82,71,60,67,61,56,98,74,46,30.04,29.91,8,2,0,0.09
2013-8-10,82,70,57,64,60,56,98,72,48,30.11,30.01,3,1,0,0.00
2013-8-11,85,71,62,71,66,58,98,85,60,30.02,29.91,4,0,0,0.05
2013-8-12,86,72,62,67,58,4,98,65,9,29.99,29.90,16,2,0,0.00
2013-8-13,81,67,55,62,56,52,98,71,42,30.12,29.99,8,2,0,0.00
2013-8-14,85,66,52,64,58,52,98,75,46,30.13,30.02,6,0,0,0.00
2013-8-15,83,68,55,68,60,54,98,79,52,30.06,30.00,9,1,0,0.00
2013-8-16,85,72,58,68,62,57,98,74,50,30.12,30.05,9,1,0,0.11
2013-8-17,85,71,57,66,62,57,98,75,50,30.14,30.04,11,3,0,0.01
2013-8-18,85,72,61,68,64,59,96,75,52,30.08,29.93,12,3,0,0.00
2013-8-19,88,74,64,75,69,63,98,85,63,29.95,29.83,12,5,0,0.01
2013-8-20,92,79,69,80,74,68,98,85,68,29.85,29.78,12,4,0,0.04
2013-8-21,91,79,72,82,76,71,98,91,74,29.91,29.76,14,3,0,0.05
2013-8-22,93,77,66,73,63,58,98,65,37,30.05,29.91,8,3,0,0.02
2013-8-23,89,75,59,74,65,54,98,73,56,30.08,29.97,9,2,0,0.00
2013-8-24,89,78,69,79,74,68,98,86,72,30.03,29.87,15,8,0,0.00
2013-8-25,96,86,77,82,78,74,93,81,62,29.95,29.86,16,9,0,0.00
2013-8-26,97,87,78,82,80,77,97,82,63,29.92,29.76,13,6,0,0.00
2013-8-27,103,86,75,85,80,75,98,84,55,29.84,29.71,9,3,0,0.00
2013-8-28,95,81,71,80,72,7,98,79,8,29.93,29.83,8,2,0,0.00
2013-8-29,94,81,72,83,76,68,98,85,59,29.93,29.78,14,3,0,0.14
2013-8-30,88,78,70,77,72,68,98,84,63,29.84,29.74,11,4,0,0.00
2013-8-31,90,76,63,76,70,62,98,85,62,29.82,29.62,9,2,0,0.16
2013-9-1,78,71,62,69,66,59,98,85,67,29.89,29.64,11,3,0,0.30
2013-9-2,74,61,52,60,56,52,98,85,60,30.01,29.88,9,2,0,0.50
2013-9-3,82,65,50,64,55,30,98,75,42,30.03,29.92,8,1,0,0.00
2013-9-4,94,74,59,73,66,59,98,79,49,30.08,29.93,9,2,0,0.16
2013-9-5,86,72,58,71,65,56,98,80,56,30.16,30.04,7,3,0,0.01
2013-9-6,92,78,68,75,70,67,98,80,50,30.04,29.80,14,5,0,0.00
2013-9-7,96,82,68,78,72,68,98,76,51,29.94,29.77,14,4,0,0.18
2013-9-8,79,70,64,70,66,60,98,85,67,29.98,29.81,12,4,0,0.00
2013-9-9,94,78,69,81,74,68,98,87,59,29.82,29.54,17,5,0,0.08
2013-9-10,85,75,68,76,71,65,98,86,68,29.91,29.67,7,1,0,0.00
2013-9-11,89,74,63,70,64,58,98,73,38,29.97,29.90,10,2,0,0.16
2013-9-12,76,65,54,62,56,51,98,74,48,30.15,29.96,11,4,0,0.03
2013-9-13,78,61,46,56,51,46,98,74,43,30.22,30.02,5,1,0,0.28
2013-9-14,76,60,49,59,53,47,98,80,52,30.03,29.83,11,4,0,0.88
2013-9-15,69,59,49,63,57,48,98,92,76,30.24,29.81,11,4,0,0.28
2013-9-16,72,55,40,51,46,40,98,77,42,30.35,30.19,9,2,0,0.02
2013-9-17,68,57,47,60,54,46,98,91,74,30.20,29.87,11,4,0,0.01
2013-9-18,72,67,59,72,62,42,98,86,43,29.87,29.63,11,3,0,0.05
2013-9-19,81,72,65,76,70,65,98,95,78,29.69,29.57,12,3,0,0.22
2013-9-20,70,60,51,64,57,51,98,90,66,29.83,29.68,10,4,0,0.00
2013-9-21,71,56,47,55,51,46,98,85,57,29.90,29.82,6,1,0,0.00
2013-9-22,73,58,45,62,54,44,98,86,68,29.92,29.79,12,5,0,0.08
2013-9-23,74,62,52,61,57,52,98,83,60,29.90,29.81,14,5,0,0.24
2013-9-24,79,64,50,63,57,50,98,79,50,29.91,29.84,9,2,0,0.04
2013-9-25,77,63,52,62,57,52,98,82,56,29.91,29.80,10,2,0,0.05
2013-9-26,83,68,56,69,62,55,98,83,62,29.88,29.78,11,6,0,0.10
2013-9-27,84,73,64,71,66,62,93,81,60,29.86,29.73,15,6,0,0.00
2013-9-28,71,61,49,67,59,49,98,92,81,29.86,29.56,17,5,0,0.30
2013-9-29,78,61,47,56,52,46,98,75,44,29.89,29.73,12,4,0,0.00
2013-9-30,80,68,59,62,56,52,80,69,53,29.74,29.53,16,8,0,0.81
2013-10-1,80,68,52,60,52,42,87,59,27,29.91,29.52,11,4,0,0.12
2013-10-2,78,62,45,58,49,43,98,67,36,29.97,29.76,12,4,0,0.46
2013-10-3,61,58,57,60,58,56,98,98,98,29.83,29.71,11,4,0,0.38
2013-10-4,58,57,55,58,56,55,98,98,98,29.91,29.78,14,7,0,0.15
2013-10-5,61,56,44,60,56,44,98,98,98,29.85,29.62,17,2,0,0.66
2013-10-6,67,49,41,55,46,34,98,90,65,29.75,29.58,7,1,0,0.04
2013-10-7,72,55,43,55,48,43,98,79,46,29.90,29.74,7,1,0,0.01
2013-10-8,78,63,49,56,52,47,94,69,44,29.90,29.75,16,6,0,0.00
2013-10-9,78,65,56,60,56,53,92,73,50,29.97,29.86,11,6,0,0.00
2013-10-10,78,64,52,61,55,49,90,75,54,29.97,29.81,11,3,0,0.00
2013-10-11,75,67,59,64,60,56,98,79,61,29.82,29.57,17,8,0,0.09
2013-10-12,60,52,45,60,49,44,98,89,74,30.09,29.62,17,7,0,0.01
2013-10-13,67,51,37,50,42,36,98,74,42,30.35,30.10,6,0,0,0.11
2013-10-14,56,49,41,50,43,37,98,81,65,30.34,29.89,12,4,0,0.16
2013-10-15,55,51,47,54,50,46,98,98,98,29.91,29.60,11,4,0,0.14
2013-10-16,60,46,38,48,44,38,98,91,61,29.87,29.71,10,2,0,0.00
2013-10-17,62,47,38,50,44,38,98,89,59,29.81,29.66,7,0,0,0.15
2013-10-18,58,45,40,45,39,35,98,82,47,29.88,29.74,9,2,0,0.10
2013-10-19,49,39,34,46,38,33,98,96,83,29.75,29.59,8,0,0,0.11
2013-10-20,46,37,32,44,36,31,98,97,89,29.76,29.51,10,2,0,0.07
2013-10-21,40,34,30,37,28,25,97,78,65,29.86,29.76,11,3,0,0.00
2013-10-22,41,33,24,34,30,23,98,91,76,29.94,29.86,5,0,0,0.00
2013-10-23,40,34,31,34,30,24,98,84,68,30.01,29.91,11,2,0,0.01
2013-10-24,48,37,32,36,31,25,87,77,58,30.22,30.01,8,2,0,0.00
2013-10-25,58,44,28,48,39,28,98,82,64,30.24,29.68,15,6,0,0.00
2013-10-26,51,44,36,46,36,31,87,75,62,30.01,29.68,14,4,0,0.00
2013-10-27,63,44,30,44,36,29,98,76,47,30.05,29.72,12,3,0,0.00
2013-10-28,46,37,30,34,29,24,91,74,54,30.35,30.05,14,5,0,0.07
2013-10-29,42,36,29,39,32,24,98,85,79,30.34,30.01,10,4,0,0.02
2013-10-30,53,46,40,50,45,39,98,96,76,30.01,29.59,8,1,0,0.08
2013-10-31,53,46,40,48,43,39,98,92,74,29.58,29.29,10,2,0,0.04
2013-11-1,56,44,35,45,40,33,98,88,63,29.76,29.30,7,2,0,0.00
2013-11-2,55,42,34,40,35,31,97,80,51,30.02,29.76,7,1,0,0.02
2013-11-3,55,44,34,44,37,32,92,77,60,30.05,29.83,17,6,0,0.00
2013-11-4,49,44,36,48,42,35,98,89,72,30.07,29.76,15,5,0,0.18
2013-11-5,47,37,30,42,35,29,98,93,77,30.16,29.91,10,2,0,0.06
2013-11-6,45,36,30,35,31,28,98,85,58,30.07,29.91,8,2,0,0.20
2013-11-7,37,30,26,34,29,26,98,96,88,30.14,30.07,9,1,0,0.00
2013-11-8,45,39,26,43,35,25,98,84,73,30.11,29.51,17,7,0,0.00
2013-11-9,45,41,36,44,37,31,98,85,73,30.10,29.52,14,7,0,0.00
2013-11-10,46,38,30,37,34,29,93,83,69,30.24,30.01,12,2,0,0.00
2013-11-11,38,25,14,35,17,10,92,73,53,30.63,30.02,11,5,0,0.00
2013-11-12,30,19,8,15,12,6,93,76,51,30.69,30.37,11,2,0,0.00
2013-11-13,51,35,18,40,28,15,88,76,62,30.36,29.79,18,8,0,0.00
2013-11-14,49,38,32,42,36,31,98,90,77,29.79,29.67,7,2,0,0.00
2013-11-15,56,43,31,46,39,31,98,88,67,29.76,29.57,11,3,0,0.00
2013-11-16,52,46,42,52,45,38,98,97,88,29.57,29.13,11,4,0,0.17
2013-11-17,45,40,32,43,38,28,98,94,85,29.70,29.21,13,4,0,0.01
2013-11-18,38,29,20,29,24,19,97,82,62,30.18,29.71,12,4,0,0.00
2013-11-19,44,34,20,35,29,19,98,83,64,30.20,29.85,16,6,0,0.00
2013-11-20,44,40,35,36,33,30,98,79,61,29.96,29.83,15,6,0,0.00
2013-11-21,39,32,24,38,30,20,98,96,83,30.41,29.96,10,3,0,0.00
2013-11-22,34,23,12,20,16,6,96,74,44,30.52,30.36,13,4,0,0.00
2013-11-23,22,11,5,8,3,0,86,70,49,30.73,30.52,9,2,0,0.00
2013-11-24,28,17,4,19,10,1,91,76,62,30.62,29.91,17,8,0,0.00
2013-11-25,40,33,26,33,27,19,88,78,72,29.97,29.82,18,7,0,0.00
2013-11-26,29,20,11,23,11,6,80,67,51,30.27,29.97,12,5,0,0.00
2013-11-27,24,17,5,13,10,3,93,74,63,30.29,29.98,8,2,0,0.00
2013-11-28,32,22,11,20,15,9,92,74,60,30.42,29.98,8,2,0,0.00
2013-11-29,32,23,11,25,18,9,94,82,66,30.44,30.07,11,4,0,0.00
2013-11-30,46,33,25,34,28,24,96,83,62,30.07,29.93,7,2,0,0.00
2013-12-1,41,28,20,32,26,19,98,90,70,30.10,29.84,3,0,0,0.00
2013-12-2,36,32,24,35,31,24,98,97,95,29.84,29.50,10,4,0,0.13
2013-12-3,37,34,31,36,34,31,98,98,98,29.69,29.50,10,4,0,0.12
2013-12-4,33,29,16,33,28,15,98,98,94,29.68,29.34,11,4,0,0.01
2013-12-5,15,6,-2,13,2,-5,94,83,74,30.23,29.59,11,6,0,0.00
2013-12-6,11,-1,-9,2,-6,-14,87,80,64,30.54,30.24,8,2,0,0.00
2013-12-7,4,-6,-14,-5,-11,-18,84,77,63,30.62,30.47,7,1,0,0.00
2013-12-8,14,5,-5,9,2,-9,94,88,79,30.48,29.93,7,2,0,0.00
2013-12-9,9,0,-7,8,-4,-12,95,83,70,30.00,29.78,11,4,0,0.00
2013-12-10,10,5,-1,6,1,-5,94,83,70,30.16,29.67,10,3,0,0.00
2013-12-11,5,-4,-10,0,-10,-15,83,72,57,30.45,30.17,10,3,0,0.00
2013-12-12,24,12,-2,13,7,-7,91,82,61,30.23,30.04,8,1,0,0.00
2013-12-13,17,12,9,12,9,7,94,88,81,30.19,30.04,14,7,0,0.00
2013-12-14,30,10,0,25,7,-4,93,88,75,30.19,29.94,8,3,0,0.00
2013-12-15,13,0,-5,-3,-7,-12,84,71,48,30.03,29.97,7,2,0,0.00
2013-12-16,16,8,-3,16,5,-10,98,88,71,30.01,29.79,8,3,0,0.00
2013-12-17,31,23,6,29,19,4,98,86,70,30.00,29.75,12,5,0,0.00
2013-12-18,38,23,6,31,20,4,97,88,74,29.96,29.52,12,2,0,0.01
2013-12-19,26,18,15,25,15,12,98,88,77,29.96,29.68,13,6,0,0.00
2013-12-20,22,17,14,18,15,13,98,91,81,29.91,29.73,12,3,0,0.00
2013-12-21,24,20,14,20,17,13,95,90,81,29.87,29.74,10,3,0,0.00
2013-12-22,25,16,7,22,14,6,96,92,79,30.10,29.81,7,3,0,0.00
2013-12-23,10,1,-7,6,-3,-11,92,82,65,30.38,30.10,8,3,0,0.00
2013-12-24,10,0,-15,5,-5,-19,92,80,58,30.38,30.02,10,3,0,0.00
2013-12-25,29,15,7,28,13,5,97,92,84,30.03,29.92,8,2,0,0.00
2013-12-26,32,20,12,27,18,10,98,91,78,30.06,29.96,5,0,0,0.00
2013-12-27,42,28,16,36,26,16,98,94,76,30.05,29.77,13,4,0,0.16
2013-12-28,46,32,23,38,30,22,98,93,72,29.87,29.52,14,3,0,0.27
2013-12-29,23,0,-15,22,-7,-20,98,71,46,30.18,29.86,13,5,0,0.00
2013-12-30,1,-8,-19,-4,-12,-23,87,81,71,30.18,30.06,2,0,0,0.00
2013-12-31,5,-6,-14,-3,-11,-18,87,79,68,30.28,30.07,5,1,0,0.00
2014-1-1,3,-5,-12,-5,-11,-18,76,74,69,30.36,30.29,7,4,0,0.00
2014-1-2,9,-4,-14,-8,-13,-19,79,67,42,30.38,30.26,5,2,0,0.00